Regional Weather Roundup
Issued by NWS

Home | Current Version | Previous Version | Graphics & Text | Print | Product List | Glossary On
Versions: 1 2 3 4 5 6 7 8 9 10 11 12 13 14 15 16 17 18 19 20 21 22 23 24 25 26 27 28
000
ASUS45 KSLC 180610
RWRUT

UTAH REGIONAL WEATHER ROUNDUP
NATIONAL WEATHER SERVICE SALT LAKE CITY UT
1100 PM MST TUE JAN 17 2017

UTZ001>011-023>025-180700-

NORTHERN UTAH

CITY           SKY/WX    TMP DP  RH WIND       PRES   REMARKS
BRIGHAM CITY     N/A     12   8  81 W3        30.26S
HILL AFB       CLEAR     18   9  68 E10       30.22S WCI   7
LOGAN          CLEAR      5   1  83 CALM      30.26S
OGDEN          PTCLDY    16   9  74 S8        30.23S WCI   5
SALT LAKE CITY PTCLDY    23  18  81 CALM      30.25S
TOOELE VALLEY  PTCLDY    23  21  93 S3        30.25S FOG
WENDOVER       CLOUDY    21  18  86 CALM      30.24F
HEBER CITY     PTCLDY     0  -6  78 CALM      30.20S
WEST JORDAN    PTCLDY    21  21 100 CALM      30.24S

$$

UTZ011>015-024>027-180700-

CENTRAL/NORTHEAST UTAH

CITY           SKY/WX    TMP DP  RH WIND       PRES   REMARKS
PROVO AIRPORT  PTCLDY    18  16  92 CALM      30.25F
MOAB/CANYONLAN CLEAR     30  25  81 CALM      30.17S
DELTA          CLEAR     21  19  93 E3        30.22F
PRICE          PTCLDY    13   4  67 NE6       30.17S WCI   4
ROOSEVELT      FLURRIES  19  14  79 NW3       30.30S
VERNAL         CLOUDY    17  13  84 N3        30.28R

$$

UTZ013>016-019>022-027-180700-

SOUTHERN UTAH

CITY           SKY/WX    TMP DP  RH WIND       PRES   REMARKS
BRYCE CANYON   PTCLDY     4   1  88 W6        30.17F WCI  -7
CEDAR CITY     CLEAR     21  17  84 NW3       30.18S
MILFORD        CLEAR     23  18  81 W9        30.20F WCI  13
ST GEORGE      PTCLDY    37  23  56 E3        30.20S
HANKSVILLE     PTCLDY    27  25  93 MISG      30.22R
BLANDING       CLEAR     29  28  96 N7        30.21S WCI  22

$$

REGIONAL REPORTS     COLORADO/ARIZONA

CITY           SKY/WX    TMP DP  RH WIND       PRES   REMARKS
CRAIG, CO      FOG       11   8  88 CALM      30.20F VSB 1/4
GRAND JUNCTION CLOUDY    28  27  96 CALM      30.17S
RIFLE, CO      CLOUDY    24  21  88 SE5       30.19R WCI  18
MONTROSE, CO   CLOUDY    35  30  82 CALM      30.18S
CORTEZ, CO     CLEAR     30  29  96 NE6       30.14S WCI  24
COLORADO CITY    N/A     28  27  93 CALM      30.20S
PAGE, AZ       CLEAR     36  25  64 CALM      30.16S HAZE
GRAND CANYON   CLEAR     25  23  92 CALM      30.17F
KINGMAN, AZ    CLEAR     35  20  54 E6        30.15F WCI  30
FLAGSTAFF, AZ  CLEAR     25  23  92 CALM      30.18R

$$

REGIONAL REPORTS    NEVADA/IDAHO/WYOMING

CITY           SKY/WX    TMP DP  RH WIND       PRES   REMARKS
LAS VEGAS, NV  CLEAR     44  25  47 S3        30.14S
ELY, NY        CLEAR     10   5  80 S12       30.16F WCI  -5
ELKO, NV       MOCLDY    10   4  76 E8        30.18S WCI  -2
POCATELLO, ID  CLOUDY     7   2  80 NE10      30.20R WCI  -8
BURLEY, ID     CLEAR     17  10  74 E10       30.12F WCI   5
FORT BRIDGER,    N/A      4  -2  75 NW3       30.16S
EVANSTON, WY   CLOUDY    16   6  65 S9        30.13R WCI   4
ROCK SPRINGS,  CLOUDY     0  -5  79 W7        30.14R WCI -13

$$




USA.gov is the U.S. government's official web portal to all federal, state and local government web resources and services.